Location: Mitty Observatory
(35.9148°N, 88.8847°W)
Time: 04:28:58
(UTC-06:00)

LightSail 2 - Pass Details

Date: 26 January 2021
Orbit: 688 x 705 km, 24.0° (Epoch: 09 March)

Event Time Altitude Azimuth Distance (km) Brightness Sun altitude
Exits shadow 06:01:09 - 235° (SW) 2,628 7.7 -12.1°
Reaches altitude 10° 06:02:51 10° 224° (SW) 2,122 7.3 -11.8°
Maximum altitude 06:06:29 20° 177° (S) 1,550 7.1 -11.1°
Drops below altitude 10° 06:10:06 10° 130° (SE) 2,121 8.8 -10.4°
Sets 06:13:03 0° 114° (ESE) 3,038 10.5 -9.8°
